Location: Baia Mare
(47.6567°N, 23.5850°E)
Time: 12:55:06
(UTC+03:00)

ISS - Pass Details

Date: 15 July 2018
Orbit: 402 x 408 km, 51.6° (Epoch: 21 July)

Event Time Altitude Azimuth Distance (km) Brightness Sun altitude
Rises 04:23:23 0° 287° (WNW) 2,332 -0.2 -10.8°
Reaches altitude 10° 04:25:32 10° 294° (WNW) 1,472 -1.2 -10.6°
Maximum altitude 04:28:41 42° 7° (N) 599 -2.5 -10.2°
Drops below altitude 10° 04:31:51 10° 80° (E) 1,472 -0.2 -9.8°
Sets 04:34:01 0° 88° (E) 2,333 0.8 -9.6°
